Location: Clover
(42.5131°N, 114.6874°W)
Time: 12:48:41
(UTC+00:00)

Explorer 7 - Pass Details

Date: 13 December 2025
Orbit: 433 x 550 km, 50.2° (Epoch: 13 January)

Event Time Altitude Azimuth Distance (km) Brightness Sun altitude
Rises 02:54:16 0° 275° (W) 2,439 11.3 -30.1°
Reaches altitude 10° 02:56:39 10° 288° (WNW) 1,556 9.9 -30.5°
Enters shadow 02:57:12 13° 294° (WNW) 1,373 9.5 -30.6°
